Simultaneous Nadir Overpasses (SNOs) Predictions

Prediction of SNOs between LANDSAT-8 and NOAA-19 Satellite Orbit:

Table of predicted SNOs for the next 14.0 days since TLE Epoch: 9/14/2019
Index Date (LANDSAT-8) Time (LANDSAT-8) Lat,Lon (LANDSAT-8) SZA (LANDSAT-8 ) Date (NOAA-19) Time (NOAA-19) Lat,Lon (NOAA-19) SZA (NOAA-19 ) Distance(km) Time Diff (sec)
1 09/14/2019 06:24:44 79.09, 105.16 76.38 09/14/2019 06:23:50 79.08, 105.12 76.35 1.41 54
2 09/14/2019 07:14:12 -79.06, -87.38 103.65 09/14/2019 07:14:45 -79.05, -87.39 103.65 0.97 33
3 09/16/2019 11:58:23 -79.37,-156.52 102.37 09/16/2019 11:57:20 -79.43,-161.21 102.66 96.15 63
4 09/16/2019 12:47:57 79.05, 9.09 77.20 09/16/2019 12:48:13 79.08, 9.13 77.24 3.86 16
5 09/18/2019 18:21:42 -79.10, 105.94 101.86 09/18/2019 18:21:32 -79.08, 105.89 101.88 2.13 10
6 09/20/2019 23:55:27 79.09,-157.55 79.01 09/20/2019 23:54:59 79.11,-157.61 79.01 2.77 28
7 09/21/2019 00:44:55 -79.06, 9.94 101.02 09/21/2019 00:45:55 -79.06, 10.00 100.99 1.33 60
8 09/23/2019 05:29:13 -79.11, -60.86 100.09 09/23/2019 05:28:19 -79.11, -60.86 100.10 0.04 54
9 09/23/2019 06:18:39 79.10, 106.71 79.91 09/23/2019 06:19:21 79.08, 106.60 79.91 2.76 42
10 09/25/2019 11:02:58 79.10, 35.69 80.80 09/25/2019 11:01:44 79.11, 35.84 80.79 3.32 74
11 09/25/2019 11:52:26 -79.08,-156.81 99.23 09/25/2019 11:52:42 -79.09,-156.77 99.21 1.53 16
12 09/27/2019 17:26:11 79.09, -60.23 81.66 09/27/2019 17:26:07 79.12, -60.23 81.69 3.83 4




NCC Satellite Simultaneous Nadir Overpasses (SNOs) Prediction Service
